Time,TemperatureF,DewpointF,PressureIn,WindDirection,WindDirectionDegrees,WindSpeedMPH,WindSpeedGustMPH,Humidity,HourlyPrecipIn,Conditions,Clouds,dailyrainin,SoftwareType,DateUTC
2013-04-15 00:03:00,40.0,31.0,30.19,WSW,244,1.0,4.0,71,0.00,,,0.00,,2013-04-15 04:03:00,
2013-04-15 00:13:00,40.0,31.0,30.19,WSW,244,1.0,4.0,71,0.00,,,0.00,,2013-04-15 04:13:00,
2013-04-15 00:23:00,40.0,32.0,30.19,West,266,0.0,4.0,72,0.00,,,0.00,,2013-04-15 04:23:00,
2013-04-15 00:33:00,40.0,32.0,30.19,NW,313,2.0,5.0,73,0.00,,,0.00,,2013-04-15 04:33:00,
2013-04-15 00:43:00,40.0,32.0,30.19,NW,313,2.0,5.0,73,0.00,,,0.00,,2013-04-15 04:43:00,
2013-04-15 00:53:00,40.0,32.0,30.20,NW,326,1.0,3.0,74,0.00,,,0.00,,2013-04-15 04:53:00,
2013-04-15 01:03:00,40.0,32.0,30.20,NW,311,2.0,5.0,74,0.00,,,0.00,,2013-04-15 05:03:00,
2013-04-15 01:13:00,40.0,32.0,30.20,NW,311,2.0,5.0,74,0.00,,,0.00,,2013-04-15 05:13:00,
2013-04-15 01:23:00,39.0,32.0,30.20,WNW,298,3.0,5.0,75,0.00,,,0.00,,2013-04-15 05:23:00,
2013-04-15 01:33:00,39.0,32.0,30.20,NW,325,2.0,5.0,76,0.00,,,0.00,,2013-04-15 05:33:00,
2013-04-15 01:42:00,39.0,32.0,30.20,NW,325,2.0,5.0,76,0.00,,,0.00,,2013-04-15 05:42:00,
2013-04-15 01:53:00,39.0,32.0,30.21,NW,321,3.0,6.0,76,0.00,,,0.00,,2013-04-15 05:53:00,
2013-04-15 02:02:00,39.0,32.0,30.21,NNW,332,2.0,5.0,77,0.00,,,0.00,,2013-04-15 06:02:00,
2013-04-15 02:12:00,39.0,32.0,30.21,NNW,332,2.0,5.0,77,0.00,,,0.00,,2013-04-15 06:12:00,
2013-04-15 02:23:00,38.0,31.0,30.21,NNW,340,1.0,3.0,77,0.00,,,0.00,,2013-04-15 06:23:00,
2013-04-15 02:33:00,38.0,32.0,30.21,West,259,1.0,3.0,78,0.00,,,0.00,,2013-04-15 06:33:00,
2013-04-15 02:42:00,38.0,32.0,30.21,West,259,1.0,3.0,78,0.00,,,0.00,,2013-04-15 06:42:00,
2013-04-15 02:53:00,38.0,32.0,30.21,NW,323,1.0,4.0,78,0.00,,,0.00,,2013-04-15 06:53:00,
2013-04-15 03:03:00,38.0,32.0,30.21,NW,304,1.0,3.0,79,0.00,,,0.00,,2013-04-15 07:03:00,
2013-04-15 03:41:00,38.0,32.0,30.21,NW,304,1.0,3.0,79,0.00,,,0.00,,2013-04-15 07:41:00,
2013-04-15 03:42:00,38.0,32.0,30.22,NW,304,1.0,4.0,79,0.00,,,0.00,,2013-04-15 07:42:00,
2013-04-15 03:54:00,37.0,31.0,30.22,WSW,246,0.0,2.0,80,0.00,,,0.00,,2013-04-15 07:54:00,
2013-04-15 04:03:00,37.0,32.0,30.23,WSW,253,0.0,2.0,81,0.00,,,0.00,,2013-04-15 08:03:00,
2013-04-15 04:13:00,37.0,32.0,30.23,WSW,253,0.0,2.0,81,0.00,,,0.00,,2013-04-15 08:13:00,
2013-04-15 04:22:00,36.0,31.0,30.24,NW,312,0.0,1.0,82,0.00,,,0.00,,2013-04-15 08:22:00,
2013-04-15 04:34:00,36.0,31.0,30.24,NW,311,0.0,1.0,82,0.00,,,0.00,,2013-04-15 08:34:00,
2013-04-15 04:43:00,36.0,31.0,30.24,NW,311,0.0,1.0,82,0.00,,,0.00,,2013-04-15 08:43:00,
2013-04-15 04:52:00,36.0,31.0,30.25,NW,311,0.0,0.0,83,0.00,,,0.00,,2013-04-15 08:52:00,
2013-04-15 05:03:00,35.0,31.0,30.26,NW,313,0.0,0.0,84,0.00,,,0.00,,2013-04-15 09:03:00,
2013-04-15 05:12:00,35.0,31.0,30.26,NW,313,0.0,0.0,84,0.00,,,0.00,,2013-04-15 09:12:00,
2013-04-15 05:23:00,35.0,31.0,30.26,NW,314,0.0,0.0,84,0.00,,,0.00,,2013-04-15 09:23:00,
2013-04-15 05:33:00,35.0,31.0,30.27,North,355,0.0,0.0,84,0.00,,,0.00,,2013-04-15 09:33:00,
2013-04-15 05:43:00,35.0,31.0,30.27,North,355,0.0,0.0,84,0.00,,,0.00,,2013-04-15 09:43:00,
2013-04-15 05:53:00,35.0,31.0,30.27,North,1,1.0,2.0,84,0.00,,,0.00,,2013-04-15 09:53:00,
2013-04-15 06:03:00,35.0,31.0,30.28,North,359,0.0,1.0,84,0.00,,,0.00,,2013-04-15 10:03:00,
2013-04-15 06:13:00,35.0,31.0,30.28,North,359,0.0,1.0,84,0.00,,,0.00,,2013-04-15 10:13:00,
2013-04-15 06:23:00,35.0,31.0,30.28,NNW,337,0.0,0.0,84,0.00,,,0.00,,2013-04-15 10:23:00,
2013-04-15 06:33:00,35.0,31.0,30.29,North,349,0.0,0.0,85,0.00,,,0.00,,2013-04-15 10:33:00,
2013-04-15 06:42:00,35.0,31.0,30.29,North,349,0.0,0.0,85,0.00,,,0.00,,2013-04-15 10:42:00,
2013-04-15 06:52:00,35.0,31.0,30.30,North,349,0.0,0.0,85,0.00,,,0.00,,2013-04-15 10:52:00,
2013-04-15 07:03:00,36.0,32.0,30.32,NW,308,0.0,2.0,84,0.00,,,0.00,,2013-04-15 11:03:00,
2013-04-15 07:13:00,36.0,32.0,30.32,NW,308,0.0,2.0,84,0.00,,,0.00,,2013-04-15 11:13:00,
2013-04-15 07:22:00,36.0,31.0,30.33,NW,319,1.0,2.0,83,0.00,,,0.00,,2013-04-15 11:22:00,
2013-04-15 07:32:00,37.0,32.0,30.34,NW,309,1.0,3.0,81,0.00,,,0.00,,2013-04-15 11:32:00,
2013-04-15 07:43:00,37.0,32.0,30.34,NW,309,1.0,3.0,81,0.00,,,0.00,,2013-04-15 11:43:00,
2013-04-15 07:54:00,38.0,32.0,30.34,NNE,18,1.0,3.0,79,0.00,,,0.00,,2013-04-15 11:54:00,
2013-04-15 08:04:00,39.0,33.0,30.34,NNW,346,1.0,4.0,78,0.00,,,0.00,,2013-04-15 12:04:00,
2013-04-15 08:14:00,39.0,33.0,30.34,NNW,346,1.0,4.0,78,0.00,,,0.00,,2013-04-15 12:14:00,
2013-04-15 08:23:00,41.0,33.0,30.35,WNW,301,2.0,2.0,74,0.00,,,0.00,,2013-04-15 12:23:00,
2013-04-15 08:33:00,42.0,34.0,30.35,North,349,0.0,2.0,72,0.00,,,0.00,,2013-04-15 12:33:00,
2013-04-15 08:43:00,42.0,34.0,30.35,North,349,0.0,2.0,72,0.00,,,0.00,,2013-04-15 12:43:00,
2013-04-15 08:53:00,43.0,34.0,30.35,NNE,16,1.0,4.0,69,0.00,,,0.00,,2013-04-15 12:53:00,
2013-04-15 09:04:00,45.0,34.0,30.35,NW,316,2.0,3.0,65,0.00,,,0.00,,2013-04-15 13:04:00,
2013-04-15 09:13:00,45.0,34.0,30.35,NW,316,2.0,3.0,65,0.00,,,0.00,,2013-04-15 13:13:00,
2013-04-15 09:23:00,45.0,34.0,30.35,NW,325,2.0,4.0,64,0.00,,,0.00,,2013-04-15 13:23:00,
2013-04-15 09:33:00,47.0,33.0,30.36,East,91,2.0,3.0,58,0.00,,,0.00,,2013-04-15 13:33:00,
2013-04-15 09:43:00,47.0,33.0,30.36,East,91,2.0,3.0,58,0.00,,,0.00,,2013-04-15 13:43:00,
2013-04-15 09:53:00,47.0,33.0,30.36,NE,49,2.0,4.0,58,0.00,,,0.00,,2013-04-15 13:53:00,
2013-04-15 10:05:00,48.0,33.0,30.36,SE,126,1.0,4.0,55,0.00,,,0.00,,2013-04-15 14:05:00,
2013-04-15 10:13:00,48.0,33.0,30.36,SE,126,1.0,4.0,55,0.00,,,0.00,,2013-04-15 14:13:00,
2013-04-15 10:22:00,49.0,34.0,30.37,NE,39,3.0,5.0,56,0.00,,,0.00,,2013-04-15 14:22:00,
2013-04-15 10:33:00,49.0,33.0,30.37,NE,36,3.0,5.0,54,0.00,,,0.00,,2013-04-15 14:33:00,
2013-04-15 10:44:00,49.0,33.0,30.37,NE,36,3.0,5.0,54,0.00,,,0.00,,2013-04-15 14:44:00,
2013-04-15 10:55:00,49.0,33.0,30.38,North,353,3.0,7.0,54,0.00,,,0.00,,2013-04-15 14:55:00,
2013-04-15 11:03:00,50.0,34.0,30.38,ENE,62,2.0,4.0,54,0.00,,,0.00,,2013-04-15 15:03:00,
2013-04-15 11:13:00,50.0,34.0,30.38,ENE,62,2.0,4.0,54,0.00,,,0.00,,2013-04-15 15:13:00,
2013-04-15 11:24:00,49.0,34.0,30.38,East,101,2.0,6.0,55,0.00,,,0.00,,2013-04-15 15:24:00,
2013-04-15 11:35:00,50.0,34.0,30.38,ESE,112,1.0,4.0,53,0.00,,,0.00,,2013-04-15 15:35:00,
2013-04-15 11:44:00,50.0,34.0,30.38,ESE,112,1.0,4.0,53,0.00,,,0.00,,2013-04-15 15:44:00,
2013-04-15 11:55:00,50.0,34.0,30.37,NNE,29,3.0,5.0,53,0.00,,,0.00,,2013-04-15 15:55:00,
2013-04-15 12:05:00,49.0,34.0,30.37,NE,53,1.0,5.0,56,0.00,,,0.00,,2013-04-15 16:05:00,
2013-04-15 12:14:00,49.0,34.0,30.37,NE,53,1.0,5.0,56,0.00,,,0.00,,2013-04-15 16:14:00,
2013-04-15 12:25:00,49.0,34.0,30.36,ENE,77,1.0,5.0,57,0.00,,,0.00,,2013-04-15 16:25:00,
2013-04-15 12:33:00,50.0,35.0,30.36,NE,36,2.0,6.0,57,0.00,,,0.00,,2013-04-15 16:33:00,
2013-04-15 12:44:00,50.0,35.0,30.36,NE,36,2.0,6.0,57,0.00,,,0.00,,2013-04-15 16:44:00,
2013-04-15 12:53:00,49.0,35.0,30.36,ESE,104,1.0,6.0,58,0.00,,,0.00,,2013-04-15 16:53:00,
2013-04-15 13:04:00,49.0,36.0,30.36,NNE,25,3.0,6.0,60,0.00,,,0.00,,2013-04-15 17:04:00,
2013-04-15 13:15:00,49.0,36.0,30.36,NNE,25,3.0,6.0,60,0.00,,,0.00,,2013-04-15 17:15:00,
2013-04-15 13:22:00,50.0,37.0,30.35,NNE,33,3.0,6.0,61,0.00,,,0.00,,2013-04-15 17:22:00,
2013-04-15 13:33:00,50.0,37.0,30.35,ESE,122,3.0,7.0,61,0.00,,,0.00,,2013-04-15 17:33:00,
2013-04-15 13:43:00,50.0,37.0,30.35,ESE,122,3.0,7.0,61,0.00,,,0.00,,2013-04-15 17:43:00,
2013-04-15 13:52:00,51.0,38.0,30.35,North,9,4.0,8.0,60,0.00,,,0.00,,2013-04-15 17:52:00,
2013-04-15 14:03:00,51.0,38.0,30.35,ENE,75,1.0,6.0,62,0.00,,,0.00,,2013-04-15 18:03:00,
2013-04-15 14:13:00,51.0,38.0,30.35,ENE,75,1.0,6.0,62,0.00,,,0.00,,2013-04-15 18:13:00,
2013-04-15 14:24:00,52.0,37.0,30.35,WSW,249,3.0,6.0,56,0.00,,,0.00,,2013-04-15 18:24:00,
2013-04-15 14:33:00,54.0,34.0,30.35,South,176,3.0,6.0,47,0.00,,,0.00,,2013-04-15 18:33:00,
2013-04-15 14:42:00,54.0,34.0,30.35,South,176,3.0,6.0,47,0.00,,,0.00,,2013-04-15 18:42:00,
2013-04-15 14:52:00,55.0,34.0,30.34,ESE,111,3.0,7.0,45,0.00,,,0.00,,2013-04-15 18:52:00,
2013-04-15 15:02:00,55.0,34.0,30.34,SW,224,3.0,5.0,45,0.00,,,0.00,,2013-04-15 19:02:00,
2013-04-15 15:12:00,55.0,34.0,30.34,SW,224,3.0,5.0,45,0.00,,,0.00,,2013-04-15 19:12:00,
2013-04-15 15:22:00,54.0,35.0,30.34,NW,319,1.0,6.0,49,0.00,,,0.00,,2013-04-15 19:22:00,
2013-04-15 15:38:00,54.0,35.0,30.33,East,101,2.0,5.0,49,0.00,,,0.00,,2013-04-15 19:38:00,
2013-04-15 15:55:00,54.0,35.0,30.33,East,101,2.0,5.0,49,0.00,,,0.00,,2013-04-15 19:55:00,
2013-04-15 16:02:00,53.0,35.0,30.33,North,359,3.0,7.0,50,0.00,,,0.00,,2013-04-15 20:02:00,
2013-04-15 16:12:00,53.0,35.0,30.33,North,359,3.0,7.0,50,0.00,,,0.00,,2013-04-15 20:12:00,
2013-04-15 16:22:00,53.0,35.0,30.32,SW,218,3.0,9.0,50,0.00,,,0.00,,2013-04-15 20:22:00,
2013-04-15 16:32:00,52.0,35.0,30.32,NE,44,1.0,6.0,52,0.00,,,0.00,,2013-04-15 20:32:00,
2013-04-15 16:42:00,52.0,35.0,30.32,NE,44,1.0,6.0,52,0.00,,,0.00,,2013-04-15 20:42:00,
2013-04-15 16:52:00,51.0,34.0,30.32,SE,145,3.0,7.0,53,0.00,,,0.00,,2013-04-15 20:52:00,
2013-04-15 17:02:00,50.0,34.0,30.32,SSE,150,3.0,7.0,53,0.00,,,0.00,,2013-04-15 21:02:00,
2013-04-15 17:12:00,50.0,34.0,30.32,SSE,150,3.0,7.0,53,0.00,,,0.00,,2013-04-15 21:12:00,
2013-04-15 17:22:00,50.0,34.0,30.32,SE,137,4.0,11.0,53,0.00,,,0.00,,2013-04-15 21:22:00,
2013-04-15 17:33:00,50.0,34.0,30.32,SW,222,2.0,7.0,54,0.00,,,0.00,,2013-04-15 21:33:00,
2013-04-15 17:43:00,50.0,34.0,30.32,SW,222,2.0,7.0,54,0.00,,,0.00,,2013-04-15 21:43:00,
2013-04-15 17:53:00,51.0,34.0,30.33,SW,221,2.0,6.0,53,0.00,,,0.00,,2013-04-15 21:53:00,
2013-04-15 18:02:00,51.0,34.0,30.33,South,169,2.0,4.0,53,0.00,,,0.00,,2013-04-15 22:02:00,
2013-04-15 18:13:00,51.0,34.0,30.33,South,169,2.0,4.0,53,0.00,,,0.00,,2013-04-15 22:13:00,
2013-04-15 18:23:00,51.0,36.0,30.33,SSE,155,3.0,8.0,57,0.00,,,0.00,,2013-04-15 22:23:00,
2013-04-15 18:33:00,50.0,37.0,30.34,South,183,3.0,7.0,60,0.00,,,0.00,,2013-04-15 22:33:00,
2013-04-15 18:42:00,50.0,37.0,30.34,South,183,3.0,7.0,60,0.00,,,0.00,,2013-04-15 22:42:00,
2013-04-15 18:52:00,50.0,37.0,30.34,SSE,160,1.0,7.0,61,0.00,,,0.00,,2013-04-15 22:52:00,
2013-04-15 19:02:00,49.0,37.0,30.34,SSE,158,2.0,6.0,63,0.00,,,0.00,,2013-04-15 23:02:00,
2013-04-15 19:12:00,49.0,37.0,30.34,SSE,158,2.0,6.0,63,0.00,,,0.00,,2013-04-15 23:12:00,
2013-04-15 19:22:00,48.0,36.0,30.34,SSE,149,1.0,6.0,64,0.00,,,0.00,,2013-04-15 23:22:00,
2013-04-15 19:32:00,47.0,37.0,30.35,South,169,0.0,3.0,68,0.00,,,0.00,,2013-04-15 23:32:00,
2013-04-15 19:42:00,47.0,37.0,30.35,South,169,0.0,3.0,68,0.00,,,0.00,,2013-04-15 23:42:00,
2013-04-15 19:52:00,46.0,36.0,30.35,SSE,160,0.0,2.0,69,0.00,,,0.00,,2013-04-15 23:52:00,
2013-04-15 20:02:00,45.0,37.0,30.37,SE,130,0.0,5.0,72,0.00,,,0.00,,2013-04-16 00:02:00,
2013-04-15 20:12:00,45.0,37.0,30.37,SE,130,0.0,5.0,72,0.00,,,0.00,,2013-04-16 00:12:00,
2013-04-15 20:22:00,44.0,36.0,30.37,SE,131,0.0,0.0,74,0.00,,,0.00,,2013-04-16 00:22:00,
2013-04-15 20:32:00,44.0,37.0,30.37,ESE,110,1.0,4.0,76,0.00,,,0.00,,2013-04-16 00:32:00,
2013-04-15 20:42:00,44.0,37.0,30.37,ESE,110,1.0,4.0,76,0.00,,,0.00,,2013-04-16 00:42:00,
2013-04-15 20:52:00,43.0,37.0,30.37,NNE,19,0.0,3.0,78,0.00,,,0.00,,2013-04-16 00:52:00,
2013-04-15 21:02:00,43.0,37.0,30.36,South,191,0.0,1.0,79,0.00,,,0.00,,2013-04-16 01:02:00,
2013-04-15 21:12:00,43.0,37.0,30.36,South,191,0.0,1.0,79,0.00,,,0.00,,2013-04-16 01:12:00,
2013-04-15 21:22:00,43.0,37.0,30.36,SSW,195,0.0,6.0,80,0.00,,,0.00,,2013-04-16 01:22:00,
2013-04-15 21:32:00,43.0,38.0,30.36,SSE,147,2.0,4.0,81,0.00,,,0.00,,2013-04-16 01:32:00,
2013-04-15 21:42:00,43.0,38.0,30.36,SSE,147,2.0,4.0,81,0.00,,,0.00,,2013-04-16 01:42:00,
2013-04-15 21:52:00,43.0,38.0,30.37,SSW,201,0.0,0.0,82,0.00,,,0.00,,2013-04-16 01:52:00,
2013-04-15 22:02:00,43.0,38.0,30.37,SSW,195,0.0,0.0,82,0.00,,,0.00,,2013-04-16 02:02:00,
2013-04-15 22:12:00,43.0,38.0,30.37,SSW,195,0.0,0.0,82,0.00,,,0.00,,2013-04-16 02:12:00,
2013-04-15 22:22:00,42.0,38.0,30.37,SE,131,0.0,0.0,84,0.00,,,0.00,,2013-04-16 02:22:00,
2013-04-15 22:32:00,42.0,38.0,30.37,SW,218,1.0,3.0,85,0.00,,,0.00,,2013-04-16 02:32:00,
2013-04-15 22:42:00,42.0,38.0,30.37,SW,218,1.0,3.0,85,0.00,,,0.00,,2013-04-16 02:42:00,
2013-04-15 22:52:00,43.0,38.0,30.37,SSE,147,2.0,6.0,84,0.00,,,0.00,,2013-04-16 02:52:00,
2013-04-15 23:02:00,43.0,38.0,30.37,SSE,153,3.0,7.0,83,0.00,,,0.00,,2013-04-16 03:02:00,
2013-04-15 23:12:00,43.0,38.0,30.37,SSE,153,3.0,7.0,83,0.00,,,0.00,,2013-04-16 03:12:00,
2013-04-15 23:22:00,44.0,39.0,30.37,SSE,164,3.0,8.0,81,0.00,,,0.00,,2013-04-16 03:22:00,
2013-04-15 23:33:00,44.0,38.0,30.36,SW,222,2.0,7.0,79,0.00,,,0.00,,2013-04-16 03:33:00,
2013-04-15 23:43:00,44.0,38.0,30.36,SW,222,2.0,7.0,79,0.00,,,0.00,,2013-04-16 03:43:00,
2013-04-15 23:52:00,44.0,37.0,30.36,SSW,207,3.0,9.0,77,0.00,,,0.00,,2013-04-16 03:52:00,